Location: Shepherdstown, WV
(39.4326°N, 77.8042°W)
Time: 05:04:58
(UTC-04:00)

Vanguard 1 - Pass Details

Date: 09 August 2021
Orbit: 652 x 3831 km, 34.3° (Epoch: 24 September)

Event Time Altitude Azimuth Distance (km) Brightness Sun altitude
Rises 13:58:56 0° 269° (W) 3,151 12.8 64.5°
Reaches altitude 10° 14:01:14 10° 257° (WSW) 2,392 12.4 64.3°
Maximum altitude 14:06:01 30° 196° (SSW) 1,758 12.5 63.9°
Drops below altitude 10° 14:13:17 10° 139° (SE) 3,694 13.3 63.2°
Sets 14:17:49 0° 130° (SE) 5,231 13.8 62.7°
